This is the latest recevied weather packets stored in our database for station/object K6POO-1. If no packets are shown the sender has not sent any weather packets the latest 10 day(s).
| Time | Temp. | Humidity | Pressure | Rain* | Wind** | Luminosity | Snow |
|---|---|---|---|---|---|---|---|
| 1778114749 | 17.22° C | 72% | 1018.2 hPa | 0 mm | - | 217 W/m² | - |
| 1778114446 | 17.22° C | 72% | 1018.3 hPa | 0 mm | - | 235 W/m² | - |
| 1778114142 | 17.78° C | 70% | 1018.1 hPa | 0 mm | - | 253 W/m² | - |
| 1778113832 | 17.78° C | 69% | 1018.3 hPa | 0 mm | - | 271 W/m² | - |
| 1778113529 | 17.78° C | 70% | 1018.3 hPa | 0 mm | - | 291 W/m² | - |
| 1778113225 | 18.33° C | 69% | 1018.5 hPa | 0 mm | - | 310 W/m² | - |
| 1778112921 | 17.78° C | 70% | 1018.4 hPa | 0 mm | - | 328 W/m² | - |
| 1778112619 | 17.78° C | 71% | 1018.3 hPa | 0 mm | - | 348 W/m² | - |
| 1778112314 | 17.78° C | 70% | 1018.5 hPa | 0 mm | - | 368 W/m² | - |
| 1778112010 | 18.33° C | 68% | 1018.5 hPa | 0 mm | - | 387 W/m² | - |
| 1778111708 | 18.33° C | 68% | 1018.5 hPa | 0 mm | - | 408 W/m² | - |
| 1778111403 | 17.78° C | 69% | 1018.3 hPa | 0 mm | - | 427 W/m² | - |
| 1778111101 | 17.78° C | 71% | 1018.5 hPa | 0 mm | - | 446 W/m² | - |
| 1778110799 | 17.22° C | 71% | 1018.7 hPa | 0 mm | - | 466 W/m² | - |
| 1778110495 | 17.78° C | 69% | 1018.7 hPa | 0 mm | - | 486 W/m² | - |
| 1778110192 | 18.33° C | 68% | 1018.6 hPa | 0 mm | - | 507 W/m² | - |
| 1778109889 | 18.33° C | 68% | 1018.5 hPa | 0 mm | - | 522 W/m² | - |
| 1778109584 | 18.33° C | 68% | 1018.5 hPa | 0 mm | - | 542 W/m² | - |
| 1778109281 | 18.33° C | 68% | 1018.8 hPa | 0 mm | - | 560 W/m² | - |
| 1778108979 | 18.33° C | 68% | 1018.7 hPa | 0 mm | - | 578 W/m² | - |
| 1778108675 | 18.89° C | 68% | 1018.7 hPa | 0 mm | - | 596 W/m² | - |
| 1778108371 | 18.89° C | 68% | 1018.7 hPa | 0 mm | - | 614 W/m² | - |
| 1778108069 | 18.33° C | 69% | 1018.8 hPa | 0 mm | - | 631 W/m² | - |
| 1778107766 | 18.33° C | 69% | 1018.8 hPa | 0 mm | - | 648 W/m² | - |
| 1778107463 | 18.89° C | 67% | 1019.1 hPa | 0 mm | - | 662 W/m² | - |
* Rain latest hour (hover to see other rain measurements)
** Current wind speed in m/s (hover to see current wind gust speed)